Location: Oshawa
(43.9000°N, 78.8670°W)
Time: 12:41:47
(UTC-04:00)

Cosmos 839 Rocket - Visible Passes

Search period start: 18 April 2015 00:00
Search period end: 28 April 2015 00:00
Orbit: 964 x 2089 km, 65.9° (Epoch: 16 April)

Date Brightness Start Highest point End Pass type
(mag) Time Alt. Az. Time Alt. Az. Time Alt. Az.
18 Apr 7.2 00:31:01 10° NNW 00:35:03 15° N 00:39:39 10° NE visible
18 Apr 6.5 02:31:17 10° NNW 02:38:28 32° NE 02:47:21 10° E visible
18 Apr 5.1 04:30:58 10° NNW 04:39:49 88° WSW 04:51:00 10° SSE visible
18 Apr 6.5 21:43:16 10° W 21:48:30 24° NNW 21:54:20 10° NNE visible
18 Apr 7.2 23:48:23 10° NNW 23:52:06 14° N 23:56:12 10° NNE visible
19 Apr 6.7 01:49:28 10° NNW 01:55:53 25° NNE 02:03:42 10° E visible
19 Apr 5.3 03:49:03 10° NNW 03:57:44 71° NE 04:08:45 10° SE visible
19 Apr 5.7 05:49:43 10° NW 05:57:57 35° WSW 06:07:29 10° SSW visible
19 Apr 6.1 21:00:19 10° WSW 21:05:59 32° NW 21:12:26 10° NNE visible
19 Apr 7.1 23:05:20 10° NW 23:09:08 15° N 23:13:17 10° NNE visible
20 Apr 6.9 01:07:33 10° NNW 01:13:08 20° NNE 01:19:49 10° ENE visible
20 Apr 5.7 03:07:13 10° NNW 03:15:34 54° NE 03:26:08 10° SE visible
20 Apr 5.3 05:07:24 10° NW 05:16:07 49° WSW 05:26:39 10° S visible
20 Apr 7.0 22:22:01 10° NW 22:26:15 16° NNW 22:30:51 10° NNE visible
21 Apr 7.0 00:25:32 10° NNW 00:30:17 17° NNE 00:35:52 10° NE visible
21 Apr 6.1 02:25:24 10° NNW 02:33:16 41° NE 02:43:07 10° ESE visible
21 Apr 5.1 04:25:16 10° NW 04:34:11 67° WSW 04:45:17 10° SSE visible
21 Apr 6.8 21:38:41 10° WNW 21:43:27 20° NNW 21:48:42 10° NNE visible
21 Apr 7.1 23:43:15 10° NNW 23:47:22 15° N 23:52:03 10° NE visible
22 Apr 6.4 01:43:35 10° NNW 01:50:49 32° NE 01:59:45 10° E visible
22 Apr 5.1 03:43:17 10° NNW 03:52:13 89° SW 04:03:27 10° SSE visible
22 Apr 6.0 05:44:42 10° NW 05:52:07 25° WSW 06:00:10 10° SSW visible
22 Apr 6.5 20:55:30 10° W 21:00:47 25° NNW 21:06:44 10° NNE visible
22 Apr 7.1 23:00:35 10° NNW 23:04:24 14° N 23:08:37 10° NNE visible
23 Apr 6.7 01:01:45 10° NNW 01:08:12 25° NNE 01:16:05 10° E visible
23 Apr 5.3 03:01:22 10° NNW 03:10:08 70° NE 03:21:12 10° SE visible
23 Apr 5.7 05:02:01 10° NW 05:10:21 36° WSW 05:20:00 10° SSW visible
23 Apr 7.1 22:17:31 10° NW 22:21:27 15° N 22:25:43 10° NNE visible
24 Apr 6.9 00:19:50 10° NNW 00:25:29 20° NNE 00:32:12 10° ENE visible
24 Apr 5.7 02:19:32 10° NNW 02:27:56 53° NE 02:38:33 10° SE visible
24 Apr 5.3 04:19:42 10° NW 04:28:30 50° WSW 04:39:08 10° S visible
24 Apr 7.0 21:34:13 10° NW 21:38:33 17° NNW 21:43:16 10° NNE visible
24 Apr 7.0 23:37:47 10° NNW 23:42:36 17° NNE 23:48:16 10° NE visible
25 Apr 6.0 01:37:42 10° NNW 01:45:37 41° NE 01:55:32 10° ESE visible
25 Apr 5.1 03:37:35 10° NW 03:46:35 68° WSW 03:57:45 10° SSE visible
25 Apr 6.3 05:40:22 10° WNW 05:46:13 16° WSW 05:51:51 10° SW visible
25 Apr 6.8 20:50:54 10° WNW 20:55:45 20° NNW 21:01:07 10° NNE visible
25 Apr 7.0 22:55:28 10° NNW 22:59:40 15° N 23:04:28 10° NE visible
26 Apr 6.4 00:55:53 10° NNW 01:03:09 32° NE 01:12:09 10° E visible
26 Apr 5.1 02:55:35 10° NNW 03:04:35 90° WSW 03:15:54 10° SSE visible
26 Apr 6.0 04:56:59 10° NW 05:04:32 25° WSW 05:12:43 10° SSW visible
26 Apr 7.0 22:12:47 10° NNW 22:16:42 15° N 22:21:02 10° NNE visible
27 Apr 6.6 00:14:02 10° NNW 00:20:33 25° NNE 00:28:29 10° E visible
27 Apr 5.3 02:13:42 10° NNW 02:22:30 70° NE 02:33:38 10° SE visible
27 Apr 5.7 04:14:19 10° NW 04:22:45 36° WSW 04:32:31 10° S visible
27 Apr 7.0 21:29:43 10° NW 21:33:44 15° N 21:38:08 10° NNE visible
27 Apr 6.8 23:32:06 10° NNW 23:37:47 20° NNE 23:44:36 10° ENE visible
